period_start,C,m1,H,J0,J1,J2,J3,J4,J5,JA,JB,JC,JD,JJ,JK,JN,#
2014-07-28 00:01:27,0.01,0.00,0.00,25.81,30.38,32.63,9.43,40.15,1011.07,2027.10,3429.87,3312.04,3602.98,500.29,489.56,0.50,0000 0000 0000 0000 000000
2014-07-28 00:06:28,0.01,0.00,0.00,25.86,30.37,32.63,9.35,40.17,1010.82,2027.12,3429.52,3312.01,3602.96,499.51,488.82,0.54,0000 0000 0000 0000 000000
2014-07-28 00:11:29,0.02,0.00,0.00,25.87,30.37,32.60,9.46,40.10,1010.78,2027.16,3429.19,3312.00,3602.77,500.12,489.33,0.58,0000 0000 0000 0000 000000
2014-07-28 00:16:30,0.00,0.00,0.00,25.89,30.37,32.59,9.40,39.96,1010.78,2027.18,3429.04,3312.00,3602.33,500.13,489.12,0.62,0000 0000 0000 0000 000000
2014-07-28 00:21:31,0.01,0.00,0.00,25.94,30.37,32.58,9.48,40.27,1010.78,2027.23,3429.01,3312.00,3602.08,500.22,489.20,0.67,0000 0000 0000 0000 000000
2014-07-28 00:26:32,-0.01,0.01,0.00,25.95,30.36,32.57,9.47,40.17,1010.78,2027.25,3429.00,3312.00,3602.01,500.14,489.24,0.71,0000 0000 0000 0000 000000
2014-07-28 00:31:33,0.01,0.01,0.00,25.96,30.36,32.57,9.37,40.23,1010.79,2027.28,3428.99,3312.00,3602.00,499.75,488.65,0.75,0000 0000 0000 0000 000000
2014-07-28 00:36:34,0.01,0.01,0.00,25.99,30.36,32.58,9.44,40.38,1010.77,2027.31,3428.94,3311.99,3602.00,499.93,488.87,0.79,0000 0000 0000 0000 000000
2014-07-28 00:41:35,0.00,0.01,0.00,26.01,30.37,32.58,9.42,40.34,1010.77,2027.31,3428.75,3311.97,3601.97,500.08,488.69,0.83,0000 0000 0000 0000 000000
2014-07-28 00:46:36,0.04,0.01,0.00,26.03,30.37,32.57,9.42,40.46,1010.76,2027.52,3428.58,3311.97,3601.95,499.77,488.55,0.87,0000 0000 0000 0000 000000
2014-07-28 00:51:37,0.01,0.01,0.00,26.05,30.37,32.59,9.38,40.42,1010.76,2027.66,3428.31,3311.95,3601.86,500.04,488.76,0.92,0000 0000 0000 0000 000000
2014-07-28 00:56:38,0.01,0.01,0.00,26.08,30.37,32.59,9.38,40.44,1010.74,2027.69,3428.08,3311.94,3601.65,499.56,488.36,0.96,0000 0000 0000 0000 000000
2014-07-28 01:01:39,-0.00,0.01,0.00,26.09,30.37,32.60,9.43,40.47,1010.73,2027.53,3428.02,3311.84,3601.14,499.94,488.52,1.00,0000 0000 0000 0000 000000
2014-07-28 01:06:40,0.01,0.01,0.00,26.09,30.37,32.61,9.51,40.33,1010.71,2027.55,3428.00,3311.57,3601.04,500.51,489.21,1.04,0000 0000 0000 0000 000000
2014-07-28 01:11:41,-0.01,0.01,0.00,26.09,30.39,32.62,9.41,40.26,1010.57,2027.29,3428.00,3311.13,3601.00,499.74,488.36,1.08,0000 0000 0000 0000 000000
2014-07-28 01:16:42,-0.00,0.01,0.00,26.09,30.40,32.63,9.43,40.37,1010.40,2027.25,3427.94,3311.01,3600.99,500.41,489.11,1.13,0000 0000 0000 0000 000000
2014-07-28 01:21:43,0.00,0.01,0.00,26.10,30.40,32.62,9.35,40.27,1010.38,2027.07,3427.35,3311.00,3600.73,499.48,488.12,1.17,0000 0000 0000 0000 000000
2014-07-28 01:26:44,0.01,0.01,0.00,26.11,30.40,32.64,9.44,40.19,1010.37,2027.04,3427.05,3311.00,3600.34,500.21,488.74,1.21,0000 0000 0000 0000 000000
2014-07-28 01:31:45,0.01,0.01,0.00,26.12,30.40,32.65,9.44,40.17,1010.37,2027.07,3427.01,3310.99,3600.15,500.44,488.76,1.25,0000 0000 0000 0000 000000
2014-07-28 01:36:46,-0.00,0.01,0.00,26.11,30.40,32.65,9.38,40.20,1010.34,2027.03,3427.00,3310.98,3600.02,500.02,488.43,1.29,0000 0000 0000 0000 000000
2014-07-28 01:41:47,0.00,0.01,0.00,26.12,30.40,32.65,9.37,40.23,1010.29,2027.02,3427.00,3310.92,3600.00,499.36,487.88,1.33,0000 0000 0000 0000 000000
2014-07-28 01:46:48,0.00,0.01,0.00,26.12,30.41,32.65,9.46,40.29,1010.31,2027.04,3426.97,3310.94,3600.00,499.85,488.33,1.38,0000 0000 0000 0000 000000
2014-07-28 01:51:50,0.01,0.01,0.00,26.12,30.42,32.66,9.42,40.25,1010.50,2027.03,3426.79,3310.86,3600.00,500.03,488.59,1.42,0000 0000 0000 0000 000000
2014-07-28 01:56:51,0.01,0.01,0.00,26.12,30.42,32.67,9.46,40.21,1010.63,2027.05,3426.71,3310.80,3599.98,500.22,488.81,1.46,0000 0000 0000 0000 000000
2014-07-28 02:01:52,0.01,0.01,0.00,26.11,30.42,32.67,9.40,40.31,1010.58,2027.03,3426.48,3310.78,3599.98,499.59,488.29,1.50,0000 0000 0000 0000 000000
2014-07-28 02:06:53,0.02,0.01,0.00,26.12,30.42,32.68,9.47,40.15,1010.41,2027.02,3426.05,3310.28,3599.79,500.13,488.68,1.54,0000 0000 0000 0000 000000
2014-07-28 02:11:54,0.01,0.01,0.00,26.12,30.42,32.68,9.42,40.14,1010.36,2027.02,3426.00,3310.03,3599.27,499.46,487.95,1.59,0000 0000 0000 0000 000000
2014-07-28 02:16:55,0.00,0.01,0.00,26.11,30.42,32.68,9.45,40.06,1010.30,2027.00,3426.00,3310.03,3599.04,500.53,488.95,1.63,0000 0000 0000 0000 000000
2014-07-28 02:21:57,0.00,0.01,0.00,26.13,30.42,32.67,9.42,40.27,1010.28,2027.01,3425.95,3310.00,3599.01,500.21,488.70,1.67,0000 0000 0000 0000 000000
2014-07-28 02:26:59,0.00,0.01,0.00,26.15,30.42,32.69,9.40,40.07,1010.27,2027.00,3425.96,3310.00,3599.01,500.03,488.37,1.71,0000 0000 0000 0000 000000
2014-07-28 02:32:00,0.01,0.01,0.00,26.14,30.42,32.69,9.48,40.18,1010.27,2027.02,3425.62,3310.00,3599.00,499.89,488.32,1.75,0000 0000 0000 0000 000000
2014-07-28 02:37:01,0.00,0.01,0.00,26.17,30.42,32.69,9.40,40.18,1010.27,2027.04,3425.33,3310.00,3599.00,499.70,488.11,1.79,0000 0000 0000 0000 000000
2014-07-28 02:42:02,0.00,0.01,0.00,26.17,30.43,32.69,9.44,40.27,1010.26,2027.01,3425.07,3309.99,3598.98,499.69,488.02,1.84,0000 0000 0000 0000 000000
2014-07-28 02:47:03,0.00,0.01,0.00,26.17,30.43,32.70,9.44,40.20,1010.15,2027.02,3425.01,3309.99,3598.98,500.22,488.53,1.88,0000 0000 0000 0000 000000
2014-07-28 02:52:04,0.00,0.01,0.00,26.17,30.44,32.69,9.40,40.14,1010.18,2027.05,3425.00,3309.98,3598.94,500.31,488.55,1.92,0000 0000 0000 0000 000000
2014-07-28 02:57:05,0.01,0.01,0.00,26.15,30.45,32.71,9.51,40.24,1010.00,2027.04,3425.00,3309.96,3598.52,500.14,488.40,1.96,0000 0000 0000 0000 000000
2014-07-28 03:02:06,0.02,0.01,0.00,26.15,30.45,32.70,9.39,40.27,1009.83,2027.01,3424.84,3309.79,3598.09,499.66,487.84,2.00,0000 0000 0000 0000 000000
2014-07-28 03:07:07,0.00,0.01,0.00,26.18,30.45,32.70,9.40,40.29,1009.82,2027.02,3424.70,3309.46,3598.02,499.72,487.92,2.05,0000 0000 0000 0000 000000
2014-07-28 03:12:08,0.01,0.01,0.00,26.19,30.45,32.70,9.41,40.28,1009.79,2027.02,3424.47,3309.41,3598.01,499.93,487.95,2.09,0000 0000 0000 0000 000000
2014-07-28 03:17:09,0.01,0.01,0.00,26.20,30.45,32.71,9.37,40.27,1009.79,2027.00,3424.04,3309.06,3597.99,499.64,487.83,2.13,0000 0000 0000 0000 000000
2014-07-28 03:22:10,0.00,0.01,0.00,26.21,30.45,32.71,9.45,40.21,1009.79,2027.00,3424.00,3309.01,3597.96,500.10,488.13,2.17,0000 0000 0000 0000 000000
2014-07-28 03:27:11,0.00,0.01,0.00,26.22,30.46,32.71,9.53,40.41,1009.79,2027.01,3424.00,3309.00,3597.88,500.81,488.92,2.21,0000 0000 0000 0000 000000
2014-07-28 03:32:12,0.01,0.02,0.00,26.25,30.47,32.72,9.40,40.19,1009.78,2027.00,3423.97,3308.99,3597.24,499.73,487.68,2.26,0000 0000 0000 0000 000000
2014-07-28 03:37:13,0.01,0.02,0.00,26.26,30.47,32.72,9.48,40.35,1009.78,2027.00,3423.84,3308.97,3597.07,500.46,488.39,2.30,0000 0000 0000 0000 000000
2014-07-28 03:42:14,-0.00,0.02,0.00,26.30,30.48,32.72,9.47,40.49,1009.70,2027.00,3423.71,3308.97,3597.02,500.01,487.93,2.34,0000 0000 0000 0000 000000
2014-07-28 03:47:15,0.01,0.02,0.00,26.30,30.50,32.73,9.41,40.45,1009.63,2027.00,3423.32,3308.93,3597.01,499.87,487.88,2.38,0000 0000 0000 0000 000000
2014-07-28 03:52:16,0.01,0.02,0.00,26.32,30.50,32.75,9.42,40.38,1009.58,2027.00,3423.03,3308.74,3597.00,500.17,487.95,2.42,0000 0000 0000 0000 000000
2014-07-28 03:57:18,0.00,0.02,0.00,26.34,30.50,32.75,9.42,40.44,1009.45,2027.00,3423.01,3308.49,3597.00,499.76,487.66,2.46,0000 0000 0000 0000 000000
2014-07-28 04:02:19,0.00,0.02,0.00,26.36,30.52,32.76,9.40,40.42,1009.64,2027.00,3423.00,3308.31,3596.97,500.07,487.89,2.51,0000 0000 0000 0000 000000
2014-07-28 04:07:20,0.00,0.02,0.00,26.38,30.52,32.75,9.34,40.37,1009.77,2027.00,3422.99,3308.09,3596.84,499.64,487.42,2.55,0000 0000 0000 0000 000000
2014-07-28 04:12:21,0.01,0.02,0.00,26.39,30.54,32.76,9.37,40.52,1009.57,2027.00,3422.91,3308.01,3596.22,500.00,487.55,2.59,0000 0000 0000 0000 000000
2014-07-28 04:17:21,0.01,0.02,0.00,26.40,30.55,32.78,9.34,40.46,1009.31,2027.00,3422.59,3308.00,3596.06,499.47,487.08,2.63,0000 0000 0000 0000 000000
2014-07-28 04:22:22,0.00,0.02,0.00,26.43,30.56,32.80,9.36,40.41,1009.30,2026.99,3422.14,3308.00,3596.01,499.80,487.29,2.67,0000 0000 0000 0000 000000
2014-07-28 04:27:23,-0.00,0.02,0.00,26.45,30.57,32.82,9.40,40.50,1009.29,2026.98,3422.09,3307.98,3596.00,500.34,487.72,2.71,0000 0000 0000 0000 000000
2014-07-28 04:32:25,0.00,0.02,0.00,26.47,30.59,32.83,9.36,40.54,1009.28,2026.95,3422.00,3307.95,3595.98,500.13,487.45,2.76,0000 0000 0000 0000 000000
2014-07-28 04:37:25,0.02,0.02,0.00,26.49,30.60,32.84,9.39,40.47,1009.27,2026.97,3422.00,3307.61,3595.85,500.26,487.56,2.80,0000 0000 0000 0000 000000
2014-07-28 04:42:26,0.00,0.02,0.00,26.50,30.61,32.85,9.43,40.54,1009.26,2026.90,3421.98,3307.18,3595.42,500.22,487.56,2.84,0000 0000 0000 0000 000000
2014-07-28 04:47:27,-0.00,0.02,0.00,26.43,30.62,32.88,9.39,40.48,1009.06,2026.82,3421.65,3307.02,3595.07,500.14,487.44,2.88,0000 0000 0000 0000 000000
2014-07-28 04:52:28,-0.04,0.02,0.00,26.36,30.63,32.92,9.40,40.61,1008.83,2026.45,3421.13,3307.00,3595.00,500.05,487.47,2.92,0000 0000 0000 0000 000000
2014-07-28 04:57:29,0.00,0.02,0.00,26.32,30.65,32.92,9.46,40.71,1008.83,2026.27,3421.00,3306.99,3594.99,500.32,487.69,2.97,0000 0000 0000 0000 000000
2014-07-28 05:02:30,0.02,0.02,0.00,26.33,30.65,32.92,9.37,40.60,1008.82,2026.44,3421.00,3306.99,3594.99,499.79,487.15,3.01,0000 0000 0000 0000 000000
2014-07-28 05:07:31,-0.00,0.02,0.00,26.36,30.65,32.91,9.42,40.55,1008.80,2026.36,3421.00,3306.99,3594.99,500.01,487.23,3.05,0000 0000 0000 0000 000000
2014-07-28 05:12:32,-0.00,0.02,0.00,26.38,30.65,32.90,9.41,40.58,1008.80,2026.44,3421.00,3306.98,3594.96,499.94,487.26,3.09,0000 0000 0000 0000 000000
2014-07-28 05:17:33,-0.01,0.02,0.00,26.39,30.65,32.90,9.34,40.55,1008.80,2026.29,3420.99,3306.98,3594.90,499.57,486.76,3.13,0000 0000 0000 0000 000000
2014-07-28 05:22:34,-0.00,0.02,0.00,26.41,30.66,32.89,9.38,40.79,1008.80,2026.34,3420.96,3306.94,3594.79,500.10,487.38,3.17,0000 0000 0000 0000 000000
2014-07-28 05:27:35,0.01,0.02,0.00,26.44,30.67,32.89,9.40,40.67,1008.80,2026.22,3420.88,3306.85,3594.37,499.75,487.02,3.22,0000 0000 0000 0000 000000
2014-07-28 05:32:36,0.01,0.02,0.00,26.47,30.67,32.89,9.38,40.66,1008.77,2026.10,3420.52,3306.42,3594.07,499.95,487.13,3.26,0000 0000 0000 0000 000000
2014-07-28 05:37:37,0.01,0.02,0.00,26.50,30.67,32.90,9.34,40.61,1008.75,2026.04,3420.15,3306.19,3594.01,499.85,486.78,3.30,0000 0000 0000 0000 000000
2014-07-28 05:42:38,0.00,0.02,0.00,26.52,30.68,32.90,9.42,40.63,1008.78,2026.02,3420.04,3306.04,3594.00,500.30,487.28,3.34,0000 0000 0000 0000 000000
2014-07-28 05:47:39,0.00,0.02,0.00,26.55,30.70,32.91,9.38,40.56,1008.80,2026.01,3420.02,3306.01,3593.99,499.92,486.82,3.38,0000 0000 0000 0000 000000
2014-07-28 05:52:40,0.00,0.02,0.00,26.61,30.70,32.93,9.43,40.64,1008.79,2026.03,3420.00,3306.00,3593.99,500.35,487.29,3.43,0000 0000 0000 0000 000000
2014-07-28 05:57:41,-0.00,0.02,0.00,26.63,30.72,32.92,9.43,40.57,1008.75,2026.01,3420.00,3306.00,3593.89,500.43,487.19,3.47,0000 0000 0000 0000 000000
2014-07-28 06:02:42,0.01,0.02,0.00,26.67,30.72,32.95,9.39,40.58,1008.68,2026.00,3419.96,3305.98,3593.42,500.18,487.03,3.51,0000 0000 0000 0000 000000
2014-07-28 06:07:43,0.00,0.02,0.00,26.69,30.75,32.95,9.33,40.55,1008.44,2026.00,3419.94,3305.97,3593.25,499.71,486.35,3.55,0000 0000 0000 0000 000000
2014-07-28 06:12:44,0.02,0.02,0.00,26.71,30.75,32.98,9.43,40.61,1008.33,2026.00,3419.64,3305.80,3593.03,500.10,486.65,3.59,0000 0000 0000 0000 000000
2014-07-28 06:17:46,0.02,0.02,0.00,26.74,30.77,32.99,9.33,40.45,1008.33,2026.00,3419.12,3305.39,3593.00,500.00,486.62,3.63,0000 0000 0000 0000 000000
2014-07-28 06:22:47,0.00,0.02,0.00,26.76,30.79,33.00,9.37,40.71,1008.32,2025.99,3419.04,3305.10,3593.00,500.29,486.95,3.68,0000 0000 0000 0000 000000
2014-07-28 06:27:48,0.00,0.02,0.00,26.73,30.80,33.04,9.35,40.60,1008.33,2025.97,3419.00,3305.01,3592.89,500.00,486.48,3.72,0000 0000 0000 0000 000000
2014-07-28 06:32:49,0.00,0.02,0.00,26.67,30.82,33.07,9.43,40.59,1008.34,2025.93,3418.98,3305.00,3592.42,500.38,486.91,3.76,0000 0000 0000 0000 000000
2014-07-28 06:37:50,0.01,0.02,0.00,26.60,30.82,33.09,9.34,40.46,1008.33,2025.92,3418.94,3305.00,3592.15,499.89,486.61,3.80,0000 0000 0000 0000 000000
2014-07-28 06:42:51,0.01,0.02,0.00,26.53,30.82,33.11,9.36,40.44,1008.32,2025.91,3418.72,3305.00,3592.04,499.92,486.67,3.84,0000 0000 0000 0000 000000
2014-07-28 06:47:52,0.00,0.02,0.00,26.45,30.83,33.12,9.37,40.50,1008.31,2025.95,3418.53,3304.99,3592.04,499.78,486.68,3.89,0000 0000 0000 0000 000000
2014-07-28 06:52:52,-0.00,0.02,0.00,26.39,30.83,33.12,9.37,40.66,1008.30,2025.94,3418.44,3304.99,3592.04,499.68,486.80,3.93,0000 0000 0000 0000 000000
2014-07-28 06:57:54,0.00,0.02,0.00,26.33,30.82,33.15,9.36,40.53,1008.10,2025.93,3418.11,3304.99,3592.01,500.07,487.06,3.97,0000 0000 0000 0000 000000
2014-07-28 07:02:55,0.00,0.02,0.00,26.29,30.82,33.19,9.35,40.48,1007.98,2025.97,3418.11,3304.99,3592.03,499.82,487.02,4.01,0000 0000 0000 0000 000000
2014-07-28 07:07:56,0.00,0.02,0.00,26.29,30.80,33.14,9.43,40.71,1007.93,2025.97,3418.06,3304.99,3592.03,500.06,487.05,4.05,0000 0000 0000 0000 000000
2014-07-28 07:12:58,0.00,0.02,0.00,26.33,30.79,33.06,9.41,40.61,1007.84,2025.99,3418.08,3304.99,3592.02,500.06,487.02,4.09,0000 0000 0000 0000 000000
2014-07-28 07:17:58,0.00,0.02,0.00,26.39,30.77,32.99,9.39,40.69,1007.85,2025.99,3418.03,3304.99,3592.04,499.98,486.74,4.14,0000 0000 0000 0000 000000
2014-07-28 07:22:59,0.00,0.02,0.00,26.46,30.77,32.95,9.43,40.55,1007.84,2025.99,3418.01,3304.99,3592.01,500.29,486.91,4.18,0000 0000 0000 0000 000000
2014-07-28 07:28:01,0.00,0.02,0.00,26.50,30.75,32.95,9.34,40.57,1007.83,2025.99,3418.01,3304.99,3592.03,500.01,486.50,4.22,0000 0000 0000 0000 000000
2014-07-28 07:33:02,0.00,0.02,0.00,26.57,30.75,32.94,9.36,40.77,1007.84,2025.99,3418.00,3304.99,3592.00,500.20,486.61,4.26,0000 0000 0000 0000 000000
2014-07-28 07:38:03,0.00,0.02,0.00,26.64,30.75,32.94,9.34,40.60,1007.85,2025.99,3418.03,3304.99,3592.01,499.67,486.12,4.30,0000 0000 0000 0000 000000
2014-07-28 07:43:04,0.00,0.02,0.00,26.70,30.75,32.93,9.38,40.79,1007.84,2025.99,3418.01,3305.00,3592.00,499.89,486.32,4.35,0000 0000 0000 0000 000000
2014-07-28 07:48:05,0.00,0.02,0.00,26.77,30.76,32.93,9.41,40.63,1007.84,2025.99,3418.00,3305.00,3592.00,500.24,486.33,4.39,0000 0000 0000 0000 000000
2014-07-28 07:53:07,0.00,0.02,0.00,26.82,30.77,32.93,9.36,40.73,1007.83,2025.99,3418.00,3305.00,3591.99,500.12,486.10,4.43,0000 0000 0000 0000 000000
2014-07-28 07:58:08,0.00,0.02,0.00,26.87,30.77,32.95,9.32,40.75,1007.83,2025.99,3418.00,3304.98,3591.99,499.92,486.00,4.47,0000 0000 0000 0000 000000
2014-07-28 08:03:09,0.00,0.02,0.00,26.93,30.80,32.96,9.28,40.68,1007.83,2025.99,3417.96,3304.94,3591.96,499.88,485.82,4.51,0000 0000 0000 0000 000000
2014-07-28 08:08:10,0.01,0.02,0.00,27.00,30.81,32.98,9.36,40.77,1007.82,2025.98,3417.85,3304.75,3591.65,500.26,486.18,4.55,0000 0000 0000 0000 000000
2014-07-28 08:13:11,0.03,0.03,0.00,27.04,30.83,33.01,9.35,40.59,1007.75,2025.97,3417.31,3304.23,3591.16,499.85,485.72,4.60,0000 0000 0000 0000 000000
2014-07-28 08:18:12,0.01,0.03,0.00,27.09,30.85,33.03,9.39,40.65,1007.76,2025.94,3417.02,3304.02,3591.00,500.34,485.89,4.64,0000 0000 0000 0000 000000
2014-07-28 08:23:13,-0.00,0.03,0.00,27.14,30.87,33.06,9.34,40.87,1007.80,2025.89,3417.00,3304.00,3591.00,499.88,485.39,4.68,0000 0000 0000 0000 000000
2014-07-28 08:28:14,-0.02,0.03,0.00,27.18,30.90,33.09,9.30,40.51,1007.81,2025.74,3416.99,3303.98,3590.90,499.77,485.36,4.72,0000 0000 0000 0000 000000
2014-07-28 08:33:15,-0.03,0.03,0.00,27.22,30.93,33.12,9.35,40.67,1007.82,2025.41,3416.83,3303.92,3590.40,500.04,485.63,4.76,0000 0000 0000 0000 000000
2014-07-28 08:38:16,0.01,0.02,0.00,27.26,30.96,33.15,9.37,40.92,1007.82,2025.09,3416.16,3303.35,3590.02,499.94,485.50,4.81,0000 0000 0000 0000 000000
2014-07-28 08:43:17,0.00,0.02,0.00,27.31,30.98,33.19,9.40,40.82,1007.82,2025.01,3416.00,3303.02,3589.98,500.02,485.52,4.85,0000 0000 0000 0000 000000
2014-07-28 08:48:18,0.01,0.02,0.00,27.34,31.01,33.22,9.30,40.83,1007.83,2025.00,3415.86,3302.89,3589.51,500.32,485.64,4.89,0000 0000 0000 0000 000000
2014-07-28 08:53:19,0.07,0.03,0.00,27.40,31.04,33.27,9.38,40.68,1007.83,2025.00,3415.03,3302.00,3588.17,499.92,485.12,4.93,0000 0000 0000 0000 000000
2014-07-28 08:58:20,0.03,0.03,0.00,27.43,31.08,33.30,9.32,40.92,1007.81,2025.00,3414.43,3301.39,3587.93,500.30,485.36,4.97,0000 0000 0000 0000 000000
2014-07-28 09:03:21,0.02,0.03,0.00,27.46,31.11,33.33,9.32,40.79,1007.75,2024.97,3414.00,3301.00,3587.09,499.96,485.03,5.01,0000 0000 0000 0000 000000
2014-07-28 09:08:22,-0.00,0.03,0.00,27.49,31.14,33.37,9.25,40.92,1007.73,2024.75,3413.67,3300.61,3586.96,499.77,484.80,5.06,0000 0000 0000 0000 000000
2014-07-28 09:13:23,-0.01,0.03,0.00,27.52,31.17,33.40,9.36,40.81,1007.78,2024.26,3413.09,3300.06,3586.46,500.10,485.15,5.10,0000 0000 0000 0000 000000
2014-07-28 09:18:24,-0.01,0.03,0.00,27.57,31.21,33.44,9.26,40.79,1007.82,2024.08,3413.00,3300.00,3586.03,499.94,484.82,5.14,0000 0000 0000 0000 000000
2014-07-28 09:23:25,0.00,0.03,0.00,27.61,31.24,33.47,9.36,40.73,1007.82,2024.01,3412.89,3299.98,3585.98,500.08,484.97,5.18,0000 0000 0000 0000 000000
2014-07-28 09:28:27,0.04,0.03,0.00,27.62,31.27,33.50,9.28,40.76,1007.79,2024.00,3412.25,3299.57,3585.57,500.12,484.88,5.22,0000 0000 0000 0000 000000
2014-07-28 09:33:28,0.01,0.03,0.00,27.65,31.30,33.53,9.28,40.71,1007.75,2024.00,3412.00,3299.04,3585.03,499.83,484.71,5.27,0000 0000 0000 0000 000000
2014-07-28 09:38:29,0.00,0.03,0.00,27.68,31.34,33.58,9.31,40.64,1007.68,2023.98,3411.80,3298.98,3584.94,499.73,484.48,5.31,0000 0000 0000 0000 000000
2014-07-28 09:43:30,0.03,0.03,0.00,27.71,31.36,33.60,9.33,40.62,1007.49,2023.94,3411.10,3298.76,3584.28,499.89,484.42,5.35,0000 0000 0000 0000 000000
2014-07-28 09:48:31,-0.01,0.03,0.00,27.74,31.39,33.63,9.29,40.52,1007.37,2023.73,3411.00,3298.14,3584.01,499.76,484.26,5.39,0000 0000 0000 0000 000000
2014-07-28 09:53:32,-0.04,0.03,0.00,27.78,31.42,33.66,9.44,40.59,1007.39,2023.24,3410.85,3298.00,3583.97,500.42,484.68,5.43,0000 0000 0000 0000 000000
2014-07-28 09:58:33,0.01,0.03,0.00,27.81,31.46,33.70,9.33,40.52,1007.47,2023.05,3410.21,3297.98,3583.38,499.98,484.26,5.47,0000 0000 0000 0000 000000
2014-07-28 10:03:34,0.02,0.03,0.00,27.84,31.49,33.73,9.31,40.48,1007.55,2023.02,3410.01,3297.59,3583.02,499.99,484.33,5.52,0000 0000 0000 0000 000000
2014-07-28 10:08:35,0.01,0.03,0.00,27.88,31.52,33.76,9.37,40.62,1007.51,2023.00,3409.87,3297.03,3583.00,500.19,484.47,5.56,0000 0000 0000 0000 000000
2014-07-28 10:13:36,0.01,0.03,0.00,27.91,31.55,33.79,9.32,40.50,1007.43,2023.00,3409.38,3297.00,3582.79,500.23,484.42,5.60,0000 0000 0000 0000 000000
2014-07-28 10:18:37,0.02,0.03,0.00,27.95,31.59,33.83,9.37,40.43,1007.41,2022.96,3409.01,3296.74,3582.06,500.15,484.10,5.64,0000 0000 0000 0000 000000
2014-07-28 10:23:38,0.01,0.03,0.00,27.96,31.62,33.87,9.33,40.58,1007.47,2022.84,3408.85,3296.12,3581.97,500.16,484.21,5.68,0000 0000 0000 0000 000000
2014-07-28 10:28:39,-0.04,0.03,0.00,27.96,31.65,33.90,9.36,40.52,1007.49,2022.26,3408.10,3295.99,3581.26,500.15,484.22,5.73,0000 0000 0000 0000 000000
2014-07-28 10:33:41,0.00,0.03,0.00,27.98,31.69,33.94,9.27,40.29,1007.39,2022.01,3407.99,3295.67,3580.99,499.56,483.64,5.77,0000 0000 0000 0000 000000
2014-07-28 10:38:42,0.03,0.03,0.00,28.01,31.72,33.98,9.30,40.55,1007.34,2022.00,3407.54,3295.06,3580.63,499.75,483.73,5.81,0000 0000 0000 0000 000000
2014-07-28 10:43:43,0.01,0.03,0.00,28.02,31.75,34.02,9.33,40.62,1007.34,2022.00,3407.03,3294.97,3580.04,499.91,483.87,5.85,0000 0000 0000 0000 000000
2014-07-28 10:48:44,0.01,0.04,0.00,28.03,31.78,34.04,9.27,40.57,1007.34,2021.98,3406.96,3294.60,3579.94,499.75,483.73,5.89,0000 0000 0000 0000 000000
2014-07-28 10:53:46,0.01,0.04,0.00,28.02,31.81,34.07,9.31,40.51,1007.34,2021.78,3406.30,3294.03,3579.29,499.70,483.64,5.93,0000 0000 0000 0000 000000
2014-07-28 10:58:46,-0.04,0.04,0.00,28.01,31.84,34.10,9.28,40.49,1007.34,2021.39,3406.00,3293.98,3579.00,499.92,483.91,5.98,0000 0000 0000 0000 000000
2014-07-28 11:03:47,-0.00,0.03,0.00,28.05,31.87,34.14,9.35,40.54,1007.34,2021.09,3405.94,3293.83,3578.93,500.10,483.99,6.02,0000 0000 0000 0000 000000
2014-07-28 11:08:49,0.04,0.04,0.00,28.08,31.90,34.16,9.31,40.73,1007.34,2021.03,3405.37,3293.21,3578.26,500.15,483.99,6.06,0000 0000 0000 0000 000000
2014-07-28 11:13:49,0.00,0.04,0.00,28.13,31.92,34.19,9.28,40.66,1007.34,2021.00,3405.01,3293.00,3578.01,499.83,483.69,6.10,0000 0000 0000 0000 000000
2014-07-28 11:18:50,0.01,0.04,0.00,28.19,31.95,34.22,9.31,40.67,1007.24,2021.00,3404.95,3292.95,3577.86,500.09,483.64,6.14,0000 0000 0000 0000 000000
2014-07-28 11:23:52,0.04,0.04,0.00,28.25,31.98,34.25,9.31,40.81,1007.06,2021.00,3404.48,3292.59,3577.30,499.57,483.30,6.19,0000 0000 0000 0000 000000
2014-07-28 11:28:53,0.01,0.04,0.00,28.29,32.01,34.27,9.31,40.77,1006.89,2020.97,3404.01,3292.04,3576.98,500.10,483.40,6.23,0000 0000 0000 0000 000000
2014-07-28 11:33:54,0.00,0.04,0.00,28.33,32.03,34.30,9.29,40.86,1006.86,2020.94,3403.91,3292.00,3576.81,499.99,483.30,6.27,0000 0000 0000 0000 000000
2014-07-28 11:38:55,0.00,0.04,0.00,28.36,32.06,34.32,9.27,40.86,1006.89,2020.76,3403.25,3291.81,3576.15,500.02,483.19,6.31,0000 0000 0000 0000 000000
2014-07-28 11:43:56,-0.03,0.04,0.00,28.40,32.08,34.33,9.26,40.67,1006.90,2020.31,3403.00,3291.13,3575.99,499.77,483.04,6.35,0000 0000 0000 0000 000000
2014-07-28 11:48:57,0.01,0.04,0.00,28.41,32.10,34.36,9.34,40.76,1006.94,2020.06,3402.79,3291.00,3575.66,500.35,483.52,6.39,0000 0000 0000 0000 000000
2014-07-28 11:53:58,0.01,0.04,0.00,28.41,32.12,34.38,9.30,40.72,1006.90,2020.00,3402.10,3290.94,3575.05,499.90,483.16,6.44,0000 0000 0000 0000 000000
2014-07-28 11:58:59,0.01,0.04,0.00,28.38,32.15,34.39,9.29,40.73,1006.88,2020.00,3401.99,3290.48,3574.98,499.77,482.89,6.48,0000 0000 0000 0000 000000
2014-07-28 12:04:00,0.02,0.04,0.00,28.36,32.16,34.42,9.29,40.70,1006.86,2020.00,3401.84,3290.05,3574.63,499.65,482.80,6.52,0000 0000 0000 0000 000000
2014-07-28 12:09:02,0.02,0.04,0.00,28.30,32.18,34.44,9.21,40.61,1006.86,2019.99,3401.19,3290.00,3574.07,499.67,482.94,6.56,0000 0000 0000 0000 000000
2014-07-28 12:14:03,0.00,0.04,0.00,28.24,32.20,34.46,9.30,40.78,1006.86,2019.99,3401.01,3289.99,3574.00,499.60,483.05,6.60,0000 0000 0000 0000 000000
2014-07-28 12:19:04,0.00,0.04,0.00,28.18,32.20,34.48,9.35,40.94,1006.86,2019.97,3400.99,3289.92,3573.99,500.28,483.63,6.65,0000 0000 0000 0000 000000
2014-07-28 12:24:05,0.03,0.04,0.00,28.14,32.22,34.49,9.32,40.87,1006.85,2019.94,3400.64,3289.32,3573.56,499.66,483.14,6.69,0000 0000 0000 0000 000000
2014-07-28 12:29:07,0.01,0.04,0.00,28.09,32.22,34.49,9.30,40.77,1006.85,2019.87,3400.07,3289.03,3573.07,499.96,483.67,6.73,0000 0000 0000 0000 000000
2014-07-28 12:34:08,-0.02,0.04,0.00,28.06,32.23,34.50,9.33,40.91,1006.85,2019.70,3400.00,3289.00,3573.00,499.91,483.62,6.77,0000 0000 0000 0000 000000
2014-07-28 12:39:09,0.00,0.04,0.00,28.04,32.24,34.50,9.35,40.80,1006.85,2019.65,3399.98,3288.99,3572.99,500.23,483.72,6.81,0000 0000 0000 0000 000000
2014-07-28 12:44:10,-0.01,0.04,0.00,28.02,32.25,34.50,9.39,40.82,1006.84,2019.38,3399.58,3288.95,3572.71,500.33,484.13,6.86,0000 0000 0000 0000 000000
2014-07-28 12:49:11,0.00,0.04,0.00,27.99,32.25,34.49,9.33,40.77,1006.85,2019.26,3399.14,3288.84,3572.30,500.26,483.84,6.90,0000 0000 0000 0000 000000
2014-07-28 12:54:12,0.00,0.04,0.00,27.96,32.25,34.49,9.37,40.78,1006.85,2019.15,3399.01,3288.51,3572.03,500.17,484.02,6.94,0000 0000 0000 0000 000000
2014-07-28 12:59:13,0.03,0.04,0.00,27.96,32.25,34.50,9.42,40.77,1006.84,2019.13,3398.19,3288.03,3571.72,500.45,484.02,6.98,0000 0000 0000 0000 000000
2014-07-28 13:04:14,0.01,0.04,0.00,27.95,32.25,34.50,9.29,40.47,1006.83,2019.12,3398.00,3287.98,3571.35,499.52,483.43,7.02,0000 0000 0000 0000 000000